Regional Weather Roundup
Issued by NWS

Home | Current Version | Previous Version | Graphics & Text | Print | Product List | Glossary Off
Versions: 1 2 3 4 5 6 7 8 9 10 11 12 13 14 15 16 17 18 19 20 21 22 23 24 25 26 27 28 29 30 31 32 33 34 35 36 37 38 39 40 41 42 43 44 45 46 47 48 49 50

000
ASUS43 KMKX 251821
RWRWI

WISCONSIN REGIONAL WEATHER ROUNDUP
NATIONAL WEATHER SERVICE MILWAUKEE/SULLIVAN WI
100 PM CDT TUE APR 25 2017

NOTE: "FAIR" INDICATES FEW OR NO CLOUDS BELOW 12,000 FEET WITH NO
SIGNIFICANT WEATHER AND/OR OBSTRUCTIONS TO VISIBILITY.

WIZ001-002-006>008-014>016-023>028-251900-
NORTHWEST WISCONSIN

CITY           SKY/WX    TMP DP  RH WIND       PRES   REMARKS
SUPERIOR ARPT  DRIZZLE   43  39  85 E9        29.63F
6HR MIN TEMP:  38; 6HR MAX TEMP:  47;

ASHLAND        CLOUDY    49  37  63 N10       29.62R
6HR MIN TEMP:  42; 6HR MAX TEMP:  53; 6HR PCP: TRACE;

HAYWARD        CLOUDY    67  36  31 CALM      29.56F
6HR MIN TEMP:  57; 6HR MAX TEMP:  67; 6HR PCP: TRACE;

SIREN          CLOUDY    64  45  50 CALM      29.55F
6HR MIN TEMP:  46; 6HR MAX TEMP:  64;

CUMBERLAND     PTSUNNY   68  37  32 S6        29.54F
RICE LAKE      PTSUNNY   71  38  30 S6        29.55S
6HR MIN TEMP:  57; 6HR MAX TEMP:  71;

CHETEK         PTSUNNY   71  44  37 S6G13     29.54S
6HR MIN TEMP:  56; 6HR MAX TEMP:  71;

LADYSMITH      PTSUNNY   72  41  33 SE9       29.56F
6HR MIN TEMP:  56; 6HR MAX TEMP:  72;

EAU CLAIRE     PTSUNNY   73  41  31 SE15      29.52F
6HR MIN TEMP:  57; 6HR MAX TEMP:  73;

MENOMONIE      CLOUDY    72  41  32 SE9       29.53S
6HR MIN TEMP:  55; 6HR MAX TEMP:  73;

NEW RICHMOND   CLOUDY    67  40  37 SW6       29.54S
6HR MIN TEMP:  58; 6HR MAX TEMP:  67;

OSCEOLA        CLOUDY    66  43  42 SW3       29.57S
6HR MIN TEMP:  57; 6HR MAX TEMP:  67;

$$

WIZ003>005-009-010-017-018-251900-
NORTH CENTRAL WISCONSIN

CITY           SKY/WX    TMP DP  RH WIND       PRES   REMARKS
MANITOWISH WTR CLOUDY    68  38  33 S9        29.59F
6HR MIN TEMP:  50; 6HR MAX TEMP:  68;

ARBOR VITAE    MOSUNNY   72  38  28 SE9       29.58F
6HR MIN TEMP:  53; 6HR MAX TEMP:  72;

WOODRUFF       MOSUNNY   72  38  28 SE9       29.58F
6HR MIN TEMP:  53; 6HR MAX TEMP:  72;

RHINELANDER    SUNNY     73  37  27 S9G21     29.60F
6HR MIN TEMP:  54; 6HR MAX TEMP:  74;

EAGLE RIVER    SUNNY     72  31  22 SE10G16   29.60F
6HR MIN TEMP:  51; 6HR MAX TEMP:  72;

LAND O LAKES   SUNNY     71  32  23 SE8G18    29.61F
6HR MIN TEMP:  51; 6HR MAX TEMP:  73;

PHILLIPS       CLOUDY    72  41  32 SE10G16   29.55F
6HR MIN TEMP:  52; 6HR MAX TEMP:  71;

TOMAHAWK       SUNNY     71  39  31 S7        29.59F
6HR MIN TEMP:  50; 6HR MAX TEMP:  72;

MEDFORD        CLOUDY    69  44  40 SE12      29.58F
6HR MIN TEMP:  52; 6HR MAX TEMP:  69;

MERRILL        MOSUNNY   71  42  35 S8        29.59F
6HR MIN TEMP:  49; 6HR MAX TEMP:  71;

$$

WIZ029-030-035-036-043>047-251900-
CENTRAL WISCONSIN

CITY           SKY/WX    TMP DP  RH WIND       PRES   REMARKS
WAUSAU         MOSUNNY   71  42  35 S12       29.57F
6HR MIN TEMP:  50; 6HR MAX TEMP:  71;

MOSINEE        MOSUNNY   72  39  30 S9        29.60F
MARSHFIELD     CLOUDY    71  39  31 SE10      29.56F
6HR MIN TEMP:  52; 6HR MAX TEMP:  72;

STEVENS POINT  CLOUDY    71  40  32 SE12G22   29.59F
6HR MIN TEMP:  52; 6HR MAX TEMP:  71;

WAUPACA        CLOUDY    75  42  30 S12       29.61S
6HR MIN TEMP:  53; 6HR MAX TEMP:  75;

WAUTOMA        PTSUNNY   75  43  31 S12       29.59F
6HR MIN TEMP:  51; 6HR MAX TEMP:  75;

WISC RAPIDS    CLOUDY    76  39  26 S10       29.58F
6HR MIN TEMP:  55; 6HR MAX TEMP:  76;

CAMP DOUGLAS   CLOUDY    72  43  35 SE8       29.56F
$$

WIZ011>013-019>022-031-037>040-048>050-251900-
NORTHEAST WISCONSIN

CITY           SKY/WX    TMP DP  RH WIND       PRES   REMARKS
ANTIGO         PTSUNNY   69  44  40 S15       29.62F
6HR MIN TEMP:  46; 6HR MAX TEMP:  69;

SHAWANO        MOSUNNY   75  47  37 S7        29.62F
6HR MIN TEMP:  51; 6HR MAX TEMP:  74;

OCONTO         SUNNY     65  49  56 SE9G16    29.65F
6HR MIN TEMP:  50; 6HR MAX TEMP:  65;

STURGEON BAY   SUNNY     59  50  72 S22G30    29.68F
6HR MIN TEMP:  48; 6HR MAX TEMP:  60;

GREEN BAY      SUNNY     70  53  54 SE14      29.63F
6HR MIN TEMP:  51; 6HR MAX TEMP:  70;

MANITOWOC      SUNNY     54  46  74 SE15      29.68F
APPLETON       MOSUNNY   70  43  37 S13       29.62F
CLINTONVILLE   CLOUDY    72  43  35 S12G17    29.61F
OSHKOSH        MOSUNNY   73  48  41 S15       29.61F
6HR MIN TEMP:  53; 6HR MAX TEMP:  74;

$$

WIZ032>034-041-042-053>061-251900-
SOUTHWEST WISCONSIN

CITY           SKY/WX    TMP DP  RH WIND       PRES   REMARKS
LA CROSSE      CLOUDY    72  44  36 S10       29.54F
6HR MIN TEMP:  59; 6HR MAX TEMP:  73;

SPARTA         CLOUDY    72  42  33 SE9       29.56F
6HR MIN TEMP:  58; 6HR MAX TEMP:  73;

VIROQUA        CLOUDY    70  41  35 S8        29.57S
6HR MIN TEMP:  53; 6HR MAX TEMP:  70;

BOSCOBEL       CLOUDY    74  43  32 VRB5      29.56F
6HR MIN TEMP:  54; 6HR MAX TEMP:  74;

PRAIRIE DU CHI PTSUNNY   71  40  33 SE8       29.55F
6HR MIN TEMP:  54; 6HR MAX TEMP:  71;

PLATTEVILLE    CLOUDY    69  45  42 SE13      29.58F
6HR MIN TEMP:  49; 6HR MAX TEMP:  71;

$$

WIZ056-057-062-063-064-067-068-251900-
SOUTH CENTRAL WISCONSIN

CITY           SKY/WX    TMP DP  RH WIND       PRES   REMARKS
REEDSBURG      CLOUDY    72  43  35 S10       29.57F
6HR MIN TEMP:  54; 6HR MAX TEMP:  72;

BARABOO/DELLS  CLOUDY    73  41  31 S10       29.58F
6HR MIN TEMP:  54; 6HR MAX TEMP:  73;

LONE ROCK      CLOUDY    71  46  40 SE9G17    29.57F
6HR MIN TEMP:  52; 6HR MAX TEMP:  72;

MINERAL POINT  CLOUDY    70  43  37 SE13      29.59F
MADISON        CLOUDY    73  42  32 S18G25    29.60F
6HR MIN TEMP:  54; 6HR MAX TEMP:  74;

MIDDLETON      CLOUDY    74  41  29 S18G24    29.60F
6HR MIN TEMP:  55; 6HR MAX TEMP:  74;

WATERTOWN      PTSUNNY   74  46  37 S15G21    29.62F
6HR MIN TEMP:  55; 6HR MAX TEMP:  74;

MONROE         CLOUDY    72  37  28 S21G28    29.60F
JANESVILLE     PTSUNNY   73  43  33 S14G21    29.62F
$$

WIZ051-052-058>065-066-070>072-251900-
SOUTHEAST WISCONSIN

CITY           SKY/WX    TMP DP  RH WIND       PRES   REMARKS
MILWAUKEE      PTSUNNY   67  53  61 SE15      29.65F
6HR MIN TEMP:  53; 6HR MAX TEMP:  68;

WAUKESHA       SUNNY     72  43  35 S12G21    29.64F
MILWAUKEE/TIMM SUNNY     68  46  45 E9        29.65F
RACINE         SUNNY     63  49  60 S16       29.68F
6HR MIN TEMP:  50; 6HR MAX TEMP:  64; 6HR PCP: TRACE;

KENOSHA        SUNNY     70  50  49 SE15      29.66F
6HR MIN TEMP:  53; 6HR MAX TEMP:  72;

FOND DU LAC    MOSUNNY   73  46  38 S13       29.61F
6HR MIN TEMP:  53; 6HR MAX TEMP:  73;

SHEBOYGAN      MOSUNNY   61  53  75 SE13      29.67F
6HR MIN TEMP:  48; 6HR MAX TEMP:  61;

WEST BEND      CLOUDY    70  50  49 E8        29.64F
JUNEAU         MOSUNNY   72  45  38 S12G22    29.63F
6HR MIN TEMP:  53; 6HR MAX TEMP:  73;

$$

LSZ147-162-251900-
LAKE SUPERIOR

STATION/POSITION TIME  TEMP    WIND        PRES    WAVE
                       AIR SEA DIR/SP/G            HT/PER
                 (UTC) (F)     (DEG/KT/KT) (MB)    (FT/S)
DEVILS ISLAND    1800   39      70/  7/ 10 1004.2R
SAXON HARBOR     1740   44     320/  2/  3 1002.4S
$$

LMZ867-665-643>646-251900-
LAKE MICHIGAN

STATION/POSITION TIME  TEMP    WIND        PRES    WAVE
                       AIR SEA DIR/SP/G            HT/PER
                 (UTC) (F)     (DEG/KT/KT) (MB)    (FT/S)
CHAMBERS ISLAND  1740   60     160/  8/ 13 1005.1F
N MID LAKE BUOY  1750   42 37  110/  4/  6 1007.8R   2/ 4
NORTHPORT PIER   1740   48     140/ 12/ 17 1005.8F
KEWAUNEE LAKESHO 1754   45     170/  9/ 10 1005.3F
SHEBOYGAN LAKESH 1800



USA.gov is the U.S. government's official web portal to all federal, state and local government web resources and services.